{"data":{"norad_id":59855,"intl_designator":"2024-097W","name":"STARLINK-31882","alt_names":[],"object_type":"PAYLOAD","status":"ACTIVE","operator":null,"country":"US","launch_date":"2024-05-23","launch_site_code":"AFETR","launch_vehicle":null,"mission":null,"orbit_class":"UNKNOWN","rcs_meters":null,"size_class":null,"mass_kg":null,"dimensions":null,"purposes":["comms"],"wikipedia_slug":null,"has_3d_model":false,"image_url":null,"decayed_at":null,"tle_current":{"epoch":"2026-09-21T07:15:21.223008Z","epoch_age_seconds":105177,"freshness":"FRESH","line1":"1 59855U 24097W   26264.30232897  .00000361  00000+0  22645-4 0  9990","line2":"2 59855  43.0001 242.6682 0001004 273.1700  86.9037 15.27579156131913","mean_motion":15.27579156,"eccentricity":0.0001004,"inclination_deg":43.0001,"raan_deg":242.6682,"arg_perigee_deg":273.17,"mean_anomaly_deg":86.9037,"bstar":2.2645e-5,"rev_number":13191,"period_min":94.266800796803,"perigee_km":482.36275994267,"apogee_km":483.74048661822,"semimajor_km":6861.1886232804,"source":"CELESTRAK","updated_at":"2026-09-22T09:00:49.099462Z"}}}